Baton Rouge, LA

8:53 AM CDT on August 29, 2016 (GMT -0500)
Baton Rouge Metro-Ryan

Weather History for KBTR - May, 2012

Change the Weather History Date:

Sunday, May 27, 2012

  Actual Average Record
Temperature  
Mean Temperature 82 °F 78 °F  
Max Temperature 94 °F 89 °F 98 °F (1922)
Min Temperature 69 °F 68 °F 49 °F (1961)
Degree Days  
Heating Degree Days 0 0  
Month to date heating degree days 0 0  
Since 1 July heating degree days 1130 1553  
Cooling Degree Days 17 13  
Month to date cooling degree days 322 279  
Year to date cooling degree days 742 510  
Growing Degree Days 31 (Base 50)    
Moisture  
Dew Point 70 °F    
Average Humidity 71    
Maximum Humidity 97    
Minimum Humidity 44    
Precipitation  
Precipitation 0.00 in 0.17 in 2.94 in (1948)
Month to date precipitation 2.52 4.22  
Year to date precipitation 25.52 23.85  
Snow  
Snow 0.00 in - - ()
Month to date snowfall 0.0  
Since 1 July snowfall 0.0  
Snow Depth 0.00 in    
Sea Level Pressure  
Sea Level Pressure 29.98 in    
Wind  
Wind Speed 2 mph (North)    
Max Wind Speed 12 mph    
Max Gust Speed 17 mph    
Visibility 9 miles    
Events      
T = Trace of Precipitation, MM = Missing Value Source: NWS Daily Summary

Daily Weather History Graph

Daily Weather History Graph

Search for Another Location

Airport or City:

Trip Planner

Search our weather history database for the weather conditions in past years. The results will help you decide how hot, cold, wet, or windy it might be!

Date:

Astronomy

May. 27, 2012 Rise Set
Actual Time 6:04 AM CDT 7:59 PM CDT
Civil Twilight 5:37 AM CDT 8:26 PM CDT
Nautical Twilight 5:04 AM CDT 8:59 PM CDT
Astronomical Twilight 4:29 AM CDT 9:34 PM CDT
Moon 11:54 AM CDT (5/27) 12:19 AM CDT (5/27)
Length of Visible Light 14h 49m
Length of Day
13h 55m
Waxing Crescent, 38% of the Moon is Illuminated
May 27
Waxing Crescent
May 28
First Quarter
Jun 4
Full
Jun 11
Last Quarter
Jun 19
New

Hourly Weather History & Observations

Time (CDT) Temp. Heat Index Dew Point Humidity Pressure Visibility Wind Dir Wind Speed Gust Speed Precip Events Conditions
12:53 AM 73.0 °F - 70.0 °F 90% 30.01 in 10.0 mi Calm Calm - N/A   Clear
1:53 AM 72.0 °F - 69.1 °F 91% 30.01 in 9.0 mi Calm Calm - N/A   Clear
2:53 AM 72.0 °F - 69.1 °F 91% 30.00 in 9.0 mi Calm Calm - N/A   Partly Cloudy
3:53 AM 71.1 °F - 69.1 °F 93% 30.00 in 8.0 mi Calm Calm - N/A   Partly Cloudy
4:53 AM 69.1 °F - 68.0 °F 96% 30.01 in 7.0 mi Calm Calm - N/A   Clear
5:53 AM 70.0 °F - 68.0 °F 93% 30.02 in 7.0 mi Calm Calm - N/A   Mostly Cloudy
6:53 AM 70.0 °F - 68.0 °F 93% 30.03 in 7.0 mi Calm Calm - N/A   Clear
7:53 AM 75.0 °F - 71.1 °F 87% 30.04 in 7.0 mi NE 4.6 mph - N/A   Clear
8:53 AM 79.0 °F - 72.0 °F 79% 30.04 in 10.0 mi Calm Calm - N/A   Clear
9:53 AM 82.0 °F 86.7 °F 72.0 °F 71% 30.04 in 10.0 mi Variable 3.5 mph - N/A   Clear
10:53 AM 86.0 °F 92.2 °F 72.0 °F 63% 30.04 in 10.0 mi NNW 3.5 mph - N/A   Clear
11:53 AM 89.1 °F 93.7 °F 69.1 °F 52% 30.03 in 10.0 mi Calm Calm - N/A   Clear
12:53 PM 89.1 °F 92.9 °F 68.0 °F 50% 30.01 in 10.0 mi ESE 4.6 mph - N/A   Scattered Clouds
1:53 PM 93.0 °F 97.4 °F 68.0 °F 44% 29.98 in 10.0 mi NNE 4.6 mph - N/A   Clear
2:53 PM 91.9 °F 95.9 °F 68.0 °F 45% 29.95 in 10.0 mi ENE 3.5 mph - N/A   Mostly Cloudy
3:53 PM 91.9 °F 95.9 °F 68.0 °F 45% 29.94 in 10.0 mi Calm Calm - N/A   Scattered Clouds
4:53 PM 91.0 °F 95.6 °F 69.1 °F 48% 29.93 in 10.0 mi SW 3.5 mph - N/A   Mostly Cloudy
5:53 PM 90.0 °F 96.9 °F 72.0 °F 55% 29.92 in 10.0 mi WNW 3.5 mph - N/A   Clear
6:53 PM 89.1 °F 96.0 °F 72.0 °F 57% 29.91 in 10.0 mi West 4.6 mph - N/A   Clear
7:53 PM 84.9 °F 90.1 °F 71.1 °F 63% 29.91 in 10.0 mi Calm Calm - N/A   Clear
8:53 PM 81.0 °F 85.8 °F 73.0 °F 77% 29.92 in 9.0 mi Calm Calm - N/A   Clear
9:53 PM 79.0 °F - 73.0 °F 82% 29.94 in 8.0 mi Calm Calm - N/A   Clear
10:53 PM 78.1 °F - 72.0 °F 81% 29.94 in 9.0 mi Calm Calm - N/A   Clear
11:53 PM 77.0 °F - 73.0 °F 88% 29.93 in 7.0 mi Calm Calm - N/A   Clear